Regional Weather Roundup
Issued by NWS

Home | Current Version | Previous Version | Graphics & Text | Print | Product List | Glossary On
Versions: 1 2 3 4 5 6 7 8 9 10 11 12 13 14 15 16 17 18 19 20 21 22 23 24 25 26 27
000
ASUS45 KBOI 251310
RWRID

IDAHO REGIONAL WEATHER ROUNDUP
NATIONAL WEATHER SERVICE BOISE ID
700 AM MDT WED MAY 25 2016

NOTE: "FAIR" INDICATES FEW OR NO CLOUDS BELOW 12000 FEET
WITH NO SIGNIFICANT WEATHER AND/OR OBSTRUCTIONS TO VISIBILITY

IDZ012-014-251400-
SOUTHWEST IDAHO


CITY           SKY/WX    TMP DP  RH WIND       PRES   REMARKS
BOISE          PTCLDY    50  42  74 CALM      29.97R
CALDWELL       PTCLDY    50  42  74 W6        29.98R
MOUNTAIN HOME  CLOUDY    55  43  63 NW12      29.97R
$$

IDZ016-017-251400-
SOUTHCENTRAL IDAHO


CITY           SKY/WX    TMP DP  RH WIND       PRES   REMARKS
BURLEY         CLOUDY    51  40  65 SW10      29.97R
JEROME         MOCLDY    48  41  76 SW7       29.98R
TWIN FALLS     CLOUDY    49  40  71 S12       29.98R
$$

IDZ019>023-251400-
SOUTHEAST IDAHO


CITY           SKY/WX    TMP DP  RH WIND       PRES   REMARKS
IDAHO FALLS    CLOUDY    45  43  93 CALM      29.99R
POCATELLO      CLOUDY    46  43  89 CALM      29.99R
REXBURG        CLOUDY    43  40  89 E7        29.99R
$$

IDZ006-010-011-018-031-032-251400-
CENTRAL IDAHO MOUNTAINS


CITY           SKY/WX    TMP DP  RH WIND       PRES   REMARKS
MCCALL         CLEAR     33  32  96 MISG      29.98S
HAILEY         PTCLDY    37  37 100 W7        30.01R WCI  32
STANLEY          N/A     34  30  85 S3        30.02R
SALMON         CLOUDY    43  39  87 CALM      29.98R
CHALLIS        MOCLDY    42  40  92 CALM      29.99R
$$

IDZ002-004-006-007-026-251400-
NORTHERN IDAHO


CITY           SKY/WX    TMP DP  RH WIND       PRES   REMARKS
LEWISTON       CLOUDY    49  46  90 SE3       29.99R
LOWELL           N/A     48  44  86 CALM      30.04R
COEUR D`ALENE  CLOUDY    48  46  93 SE5       29.96R
MULLAN PASS    FOG       39  39 100 NW5       30.01R VSB 1/4
$$




USA.gov is the U.S. government's official web portal to all federal, state and local government web resources and services.